Location: Fours
(44.3167°N, 6.7000°E)
Time: 08:05:31
(UTC+00:00)

ISS - Pass Details

Date: 05 October 2021
Orbit: 417 x 423 km, 51.6° (Epoch: 23 October)

Event Time Altitude Azimuth Distance (km) Brightness Sun altitude
Rises 18:20:56 0° 296° (WNW) 2,365 1.5 -14.1°
Reaches altitude 10° 18:23:08 10° 287° (WNW) 1,498 0.4 -14.5°
Maximum altitude 18:26:13 34° 220° (SW) 704 -2.3 -15.1°
Enters shadow 18:28:34 15° 159° (SSE) 1,225 -1.7 -15.5°
